Regional Weather Roundup
Issued by NWS Wilmington, NC

Home | Current Version | Previous Version | Text Only | Print | Product List | Glossary On
Versions: 1 2 3 4 5 6 7 8 9 10 11 12 13 14 15 16 17 18 19 20 21 22 23 24 25 26 27 28 29 30 31 32 33 34 35 36 37 38 39 40 41 42 43 44 45 46 47 48 49 50
000
ASUS42 KILM 011210
RWRILM
RWRILM
REGIONAL HOURLY WEATHER ROUNDUP
NATIONAL WEATHER SERVICE WILMINGTON NC
800 AM EDT FRI AUG 01 2014

NOTE: "FAIR" INDICATES FEW OR NO CLOUDS BELOW 12,000 FEET WITH NO
SIGNIFICANT WEATHER AND/OR OBSTRUCTIONS TO VISIBILITY.

...............WFO WILMINGTON COUNTY WARNING AREA...............

......COASTAL NC AND SC COUNTIES......

CITY           SKY/WX    TMP DP  RH WIND       PRES   REMARKS
WILMINGTON     CLOUDY    74  72  93 NE3       30.06R
SOUTHPORT      CLOUDY    75  73  93 E5        30.04R
N MYRTLE BEACH LGT RAIN  78  72  81 SE3       30.02F
MYRTLE BEACH   LGT RAIN  79  72  78 E9        30.03R

......INLAND NC AND SC COUNTIES.......

CITY           SKY/WX    TMP DP  RH WIND       PRES   REMARKS
LUMBERTON      PTSUNNY   73  71  93 E9        30.06R
ELIZABETHTOWN  RAIN      71  71 100 E7        30.08R
WHITEVILLE     LGT RAIN  72  70  95 NE5       30.05S
FLORENCE       MOSUNNY   74  71  91 E8        30.04R
DARLINGTON     PTSUNNY   72  68  88 E6        30.06R

....................REST OF NORTH CAROLINA......................

.........EASTERN NC.........

CITY           SKY/WX    TMP DP  RH WIND       PRES   REMARKS
CAPE HATTERAS  CLOUDY    80  74  81 E6        30.09F
JACKSONVILLE   CLOUDY    72  70  94 E9        30.10R
MOREHEAD CITY  HVY RAIN  77  75  93 N9        30.08R FOG
KENANSVILLE    RAIN      71  69  93 CALM      30.10R
NEW BERN       RAIN      75  70  83 NE8       30.10R
ELIZABETH CITY CLOUDY    75  69  81 NE10      30.12F

.........CENTRAL NC.........

CITY           SKY/WX    TMP DP  RH WIND       PRES   REMARKS
RALEIGH DURHAM CLOUDY    70  67  90 NE8       30.13S
ROCKY MOUNT    CLOUDY    72  67  84 NE5       30.13R
ROANOKE RAPIDS NOT AVBL
FAYETTEVILLE   CLOUDY    72  69  90 NE6       30.08R
HOFFMAN        PTSUNNY   71  70  95 E7        30.09R

.........WESTERN NC.........

CITY           SKY/WX    TMP DP  RH WIND       PRES   REMARKS
CHARLOTTE      LGT RAIN  67  64  90 VRB7      30.10R
GREENSBORO     RAIN      64  63  96 NE10      30.15R FOG
HICKORY        NOT AVBL
BOONE          NOT AVBL
ASHEVILLE      NOT AVBL

.....................REST OF SOUTH CAROLINA.....................

.........EASTERN SC.........

CITY           SKY/WX    TMP DP  RH WIND       PRES   REMARKS
CHARLESTON     MOSUNNY   78  74  87 N3        30.00S
BEAUFORT MCAS  FOG       74  73  97 NE5       30.00S VSB 1/4
HILTON HEAD    NOT AVBL

.........CENTRAL SC.........

CITY           SKY/WX    TMP DP  RH WIND       PRES   REMARKS
COLUMBIA       LGT RAIN  73  69  87 NW6       30.04R FOG
ORANGEBURG     CLOUDY    73  71  93 CALM      30.03R FOG
SUMTER SHAW    CLOUDY    73  73 100 NE3       30.03R FOG

.........WESTERN SC.........

CITY           SKY/WX    TMP DP  RH WIND       PRES   REMARKS
GREENVILLE     NOT AVBL
ROCK HILL      HVY RAIN  66  66 100 VRB3      30.09R FOG
ANDERSON       LGT RAIN  66  65  96 NE7       30.10R
CLEMSON        NOT AVBL
GREENWOOD      RAIN      66  64  93 N6        30.10S FOG


...................COASTAL AND OFFSHORE REPORTS..................

................LOCAL PIERS AND NC RESERVE................


STATION/POSITION TIME  SKY/WX   TEMP    WIND        PRES    VSBY
                                AIR SEA DIR/SP/G
                 (UTC)          (F)     (DEG/KT/KT) (MB)    (MI)
JOHNY MRCER PIER 1200            77 82  100/ 11/ 13 1017.0S
NC RESRV MASNBRO 1100            73     130/  6     1016.0S
OCEAN CREST PIER 1200            76 83   80/  9/ 12 1016.1R
SPRINGMAID  PIER 1200            77 82  110/ 10/ 12 1016.6F


................COASTAL AND OFFSHORE BUOYS................


STATION/POSITION TIME  SKY/WX   TEMP    WIND        PRES    VSBY
                                AIR SEA DIR/SP/G
                 (UTC)          (F)     (DEG/KT/KT) (MB)    (MI)
DIMNDSHOAL 41025 1200                   VRB 16/ 19  1018.5R
WVE H/P(F/S)=  4/ 7 WND WVE H/P(F/S)=  3/ 7 SWL H/P/D(F/S/D)=  2/100/ 8

CAPE LOOKOUT     1100            80      90/ 16/ 18 1017.9R
ONSLOW BAY 41036 1200            80 81  150/ 10/ 14 1018.0R
WVE H/P(F/S)=  4/ 7 WND WVE H/P(F/S)=  2/ 3 SWL H/P/D(F/S/D)=  3/100/ 7

5 WRITEBCH 41038 1100            74 81  120/ 12/ 16   N/A
MASONBORO  41110 1200               81                N/A
WVE H/P(F/S)=  5/ 5 WND WVE H/P(F/S)=  5/ 5

WILM HARBR 41108 NOT AVBL
27WRITEBCH 41037 1100            72 81   90/ 16/ 17 1017.1R
FRYING PAN 41013 NOT AVBL
SUNST NRSH 41024 1100            79     110/ 12/ 14 1016.5R
CAPRS NRSH 41029 1100            79     140/ 12/ 14   N/A
EDISTO     41004 1200            80 83  300/  2/  4 1015.3R
WVE H/P(F/S)=  4/ 6 WND WVE H/P(F/S)=  2/ 4 SWL H/P/D(F/S/D)=  3/ 6



..........OFFSHORE BUOYS BEYOND 100 NM OFFSHORE...........
.....IN A TRIANGLE---HAT TO BERMUDA TO BAHAMAS TO HAT.....


STATION/POSITION TIME  SKY/WX   TEMP    WIND        PRES    VSBY
                                AIR SEA DIR/SP/G
                 (UTC)          (F)     (DEG/KT/KT) (MB)    (MI)
150E HAT   41001 NOT AVBL
W BERMUDA  41048 1123            81 82  130/ 10/ 12 1021.3R
WVE H/P(F/S)=  3/ 6 WND WVE H/P(F/S)=  2/ 4 SWL H/P/D(F/S/D)=  3/160/ 6

ATLANTIC S 41049 1058            82 83   80/ 12/ 14 1019.4
WVE H/P(F/S)=  4/ 5 WND WVE H/P(F/S)=  2/ 5 SWL H/P/D(F/S/D)=  3/ 90/ 5

E BAHAMAS  41046 1106            82 83  110/ 12/ 14 1017.0R
WVE H/P(F/S)=  4/ 7 WND WVE H/P(F/S)=  3/ 5 SWL H/P/D(F/S/D)=  3/110/ 7

NE BAHAMAS 41047 1136            78 84  140/ 21/ 25 1018.3R
WVE H/P(F/S)=  5/ 7 WND WVE H/P(F/S)=  5/ 7 SWL H/P/D(F/S/D)=  2/310/13

120E CANVRL41010 1200            83 84  150/ 12/ 14 1015.9R
WVE H/P(F/S)=  3/ 5 WND WVE H/P(F/S)=  3/ 5 SWL H/P/D(F/S/D)=  2/ 60/ 8


END


USA.gov is the U.S. government's official web portal to all federal, state and local government web resources and services.